59P/Kearns-Kwee (2018)

Japanese version
Home page
Updated on September 23, 2018

---------------------------------------------------------------------

* Profile

* Pictures

* Orbital Elements

Epoch 2018 Aug. 30.0 TT = JDT 2458360.5
T 2018 Sept. 16.78417 TT                                MPCW
q   2.3587693            (2000.0)            P               Q
n   0.10342519     Peri.  127.70560     +0.15677659     -0.98043662
a   4.4948840      Node   312.82807     +0.84737579     +0.19543335
e   0.4752324      Incl.    9.33940     +0.50732177     -0.02344859
P   9.53
From 780 observations 2008 July 28-2018 Sept. 16, mean residual 0".6.
     Nongravitational parameters A1 = -2.72, A2 = -2.9726.

* Finding Charts

* Magnitudes Graph

        m1 = 9.5 + 5 log d + 15.0 log r

---------------------------------------------------------------------

The orbital elements are published on M.P.E.C. 2018-S50.
The charts are made with StellaNavigator Ver.10 (AstroArts).
The magnitudes graphs are made with Comet for Windows.

---------------------------------------------------------------------

Copyright(C) Seiichi Yoshida (comet@aerith.net). All rights reserved.